Date String (YYYY-MM-DD hh:mm:ss) UTC,Instrument flags,Ambient pressure (hPa),Sample flow (lpm),Bypass flow (lpm),Sample temperature (°C),Ambient temperature (°C),ASC tube jacket temperature (°C),LED temperature (°C),Box temperature (°C),Sample RH (%),Span deviation,Mass concentration (μg/m³),Mass concentration (μg/m³),Mass concentration (μg/m³)
DateTimeUTC,F1_M11,P_M11,Q1_M11,Q2_M11,T1_M11,T2_M11,T3_M11,T4_M11,T5_M11,U1_M11,ZSPAN_M11,X2_M11,X0_M11,X1_M11
2021-09-08 22:00:00,,0831.2,5.00,0.00,29.0,27.6,00.0,38.0,30.8,19.4,0002.2,0032.07,0049.35,0029.41
2021-09-08 22:01:00,,0831.2,5.00,0.00,29.1,27.9,00.0,38.0,31.0,19.6,0002.1,0032.05,0050.19,0029.43
2021-09-08 22:02:00,,0831.2,4.99,0.00,29.1,28.2,00.0,38.0,31.1,19.4,0002.1,0031.97,0050.68,0029.38
2021-09-08 22:03:00,,0831.2,5.01,0.00,29.2,28.4,00.0,38.1,31.2,19.4,0002.2,0031.95,0050.88,0029.38
2021-09-08 22:04:00,,0831.2,5.00,0.00,29.2,27.1,00.0,38.1,30.8,19.4,0002.2,0032.01,0050.58,0029.40
2021-09-08 22:05:00,,0831.2,5.00,0.00,29.0,25.7,00.0,38.1,30.5,19.6,0002.3,0032.11,0050.68,0029.48
2021-09-08 22:06:00,,0831.2,5.00,0.00,29.0,25.8,00.0,38.0,30.5,20.0,0002.6,0032.07,0051.22,0029.47
2021-09-08 22:07:00,,0831.2,4.99,0.00,28.9,26.3,00.0,38.0,30.6,19.8,0002.5,0032.07,0051.47,0029.45
2021-09-08 22:08:00,,0831.2,5.00,0.00,28.9,26.7,00.0,38.0,30.6,20.0,0002.4,0032.14,0051.38,0029.44
2021-09-08 22:09:00,,0831.2,5.00,0.00,29.0,27.2,00.0,38.0,30.8,19.5,0002.4,0032.16,0050.55,0029.46
2021-09-08 22:10:00,,0831.2,5.00,0.00,29.0,27.6,00.0,38.0,30.9,19.5,0002.5,0032.12,0051.82,0029.45
2021-09-08 22:11:00,,0831.2,4.99,0.00,29.1,27.9,00.0,38.0,31.0,19.5,0002.4,0032.02,0051.21,0029.44
2021-09-08 22:12:00,,0831.2,5.01,0.00,29.2,28.2,00.0,38.1,31.1,19.2,0002.2,0031.96,0050.23,0029.35
2021-09-08 22:13:00,,0831.2,5.00,0.00,29.2,27.2,00.0,38.1,30.8,19.2,0002.1,0031.92,0049.14,0029.36
2021-09-08 22:14:00,,0831.2,4.99,0.00,29.0,25.7,00.0,38.1,30.4,18.9,0002.1,0031.94,0049.81,0029.40
2021-09-08 22:15:00,,0831.2,5.00,0.00,28.9,25.8,00.0,38.0,30.4,19.3,0001.9,0031.94,0049.95,0029.44
2021-09-08 22:16:00,,0831.2,5.00,0.00,28.9,26.2,00.0,38.0,30.5,19.4,0001.6,0031.97,0050.68,0029.43
2021-09-08 22:17:00,,0831.2,4.98,0.00,28.9,26.7,00.0,38.0,30.6,19.3,0001.6,0032.07,0050.50,0029.49
2021-09-08 22:18:00,,0831.2,5.00,0.00,28.9,27.1,00.0,38.0,30.7,18.8,0001.7,0032.11,0050.82,0029.53
2021-09-08 22:19:00,,0831.2,4.99,0.00,29.0,27.5,00.0,38.0,30.8,18.6,0001.7,0032.16,0050.89,0029.58
2021-09-08 22:20:00,,0831.2,4.99,0.00,29.1,27.9,00.0,38.0,30.9,18.4,0001.6,0032.25,0051.53,0029.61
2021-09-08 22:21:00,,0831.2,5.00,0.00,29.1,27.8,00.0,38.0,30.9,18.3,0001.6,0032.32,0050.90,0029.66
2021-09-08 22:22:00,,0831.2,5.00,0.00,29.0,26.1,00.0,38.0,30.4,18.2,0001.8,0032.46,0051.35,0029.71
2021-09-08 22:23:00,,0831.1,5.01,0.00,28.9,25.3,00.0,38.0,30.2,18.4,0001.9,0032.53,0051.23,0029.78
2021-09-08 22:24:00,,0831.0,5.00,0.00,28.8,25.8,00.0,38.0,30.3,18.4,0001.9,0032.55,0050.67,0029.79
2021-09-08 22:25:00,,0831.0,5.01,0.00,28.8,26.3,00.0,37.9,30.4,18.5,0001.7,0032.47,0047.97,0029.74
2021-09-08 22:26:00,,0831.0,4.99,0.00,28.8,26.8,00.0,37.9,30.5,18.7,0002.0,0032.48,0048.40,0029.70
2021-09-08 22:27:00,,0831.0,4.99,0.00,28.8,27.2,00.0,37.9,30.7,18.6,0002.1,0032.40,0048.77,0029.67
2021-09-08 22:28:00,,0831.0,5.01,0.00,28.9,27.5,00.0,37.9,30.8,18.8,0002.0,0032.42,0049.31,0029.64
2021-09-08 22:29:00,,0831.1,4.99,0.00,29.0,27.9,00.0,37.9,30.9,18.7,0001.9,0032.42,0049.51,0029.61
2021-09-08 22:30:00,,0831.0,5.01,0.00,29.1,27.8,00.0,38.0,30.9,18.8,0002.1,0032.36,0049.60,0029.58
2021-09-08 22:31:00,,0831.0,5.00,0.00,29.0,26.2,00.0,38.0,30.5,18.8,0002.1,0032.35,0049.91,0029.60
2021-09-08 22:32:00,,0831.0,5.00,0.00,28.8,25.3,00.0,37.9,30.2,19.3,0002.0,0032.38,0049.47,0029.63
2021-09-08 22:33:00,,0831.0,5.00,0.00,28.8,25.7,00.0,37.9,30.3,19.4,0001.8,0032.28,0050.15,0029.61
2021-09-08 22:34:00,,0831.0,5.00,0.00,28.7,26.2,00.0,37.9,30.4,19.3,0002.0,0032.28,0051.02,0029.60
2021-09-08 22:35:00,,0831.0,4.99,0.00,28.8,26.7,00.0,37.9,30.5,19.2,0002.1,0032.28,0051.49,0029.61
2021-09-08 22:36:00,,0831.0,5.00,0.00,28.8,27.2,00.0,37.9,30.6,19.3,0002.3,0032.33,0052.87,0029.62
2021-09-08 22:37:00,,0831.0,5.01,0.00,28.9,27.6,00.0,37.9,30.8,19.4,0002.1,0032.34,0053.05,0029.62
2021-09-08 22:38:00,,0831.0,4.99,0.00,28.9,27.8,00.0,37.9,30.9,19.2,0002.1,0032.39,0053.34,0029.66
2021-09-08 22:39:00,,0831.0,4.99,0.00,29.0,28.1,00.0,37.9,31.0,19.1,0002.2,0032.35,0051.73,0029.65
2021-09-08 22:40:00,,0831.0,5.01,0.00,29.1,27.4,00.0,38.0,30.8,19.3,0002.2,0032.36,0051.01,0029.66
2021-09-08 22:41:00,,0831.0,5.00,0.00,28.9,25.7,00.0,37.9,30.2,19.2,0002.1,0032.37,0051.24,0029.69
2021-09-08 22:42:00,,0831.0,4.99,0.00,28.8,25.6,00.0,37.9,30.2,19.3,0002.3,0032.33,0050.68,0029.69
2021-09-08 22:43:00,,0831.1,5.00,0.00,28.8,26.0,00.0,37.9,30.4,19.1,0002.4,0032.31,0050.27,0029.66
2021-09-08 22:44:00,,0831.0,5.00,0.00,28.8,26.5,00.0,37.9,30.5,19.1,0002.2,0032.25,0049.01,0029.60
2021-09-08 22:45:00,,0831.0,4.99,0.00,28.8,26.9,00.0,37.9,30.6,19.1,0002.1,0032.24,0049.12,0029.56
2021-09-08 22:46:00,,0831.0,5.01,0.00,28.9,27.4,00.0,37.9,30.7,19.0,0002.0,0032.25,0049.35,0029.51
2021-09-08 22:47:00,,0831.0,5.00,0.00,28.9,27.7,00.0,37.9,30.8,18.9,0001.9,0032.24,0049.54,0029.46
2021-09-08 22:48:00,,0831.1,4.99,0.00,29.0,27.9,00.0,37.9,30.9,18.9,0001.8,0032.16,0049.54,0029.41
2021-09-08 22:49:00,,0831.1,4.99,0.00,29.1,28.0,00.0,37.9,31.0,19.0,0001.9,0032.09,0048.92,0029.40
2021-09-08 22:50:00,,0831.1,5.01,0.00,29.0,26.6,00.0,37.9,30.6,19.2,0001.9,0032.07,0049.16,0029.38
2021-09-08 22:51:00,,0831.0,5.01,0.00,28.8,25.4,00.0,37.9,30.2,19.4,0001.8,0032.06,0049.76,0029.40
2021-09-08 22:52:00,,0831.0,5.00,0.00,28.8,25.7,00.0,37.9,30.3,19.4,0001.9,0032.02,0050.56,0029.36
2021-09-08 22:53:00,,0831.0,5.00,0.00,28.8,26.2,00.0,37.9,30.4,19.5,0001.8,0031.96,0050.43,0029.34
2021-09-08 22:54:00,,0831.0,5.00,0.00,28.8,26.6,00.0,37.9,30.5,19.7,0001.9,0031.88,0050.76,0029.33
2021-09-08 22:55:00,,0831.0,5.00,0.00,28.8,27.1,00.0,37.9,30.6,19.7,0002.0,0031.95,0052.41,0029.41
2021-09-08 22:56:00,,0831.0,5.01,0.00,28.9,27.5,00.0,37.9,30.8,19.6,0002.1,0031.87,0051.74,0029.44
2021-09-08 22:57:00,,0831.0,5.00,0.00,28.9,27.8,00.0,37.9,30.9,19.6,0002.1,0031.88,0053.04,0029.47
2021-09-08 22:58:00,,0830.9,5.00,0.00,29.0,28.1,00.0,37.9,31.0,19.5,0002.2,0031.90,0052.22,0029.49
2021-09-08 22:59:00,,0830.9,5.00,0.00,29.1,27.7,00.0,38.0,30.9,19.8,0002.2,0031.88,0051.88,0029.48
